Location: Big Sable Point
(44.0575°N, 86.5149°W)
Time: 17:40:32
(UTC-04:00)

Tiangong 2 - Visible Passes

Search period start: 20 March 2019 00:00
Search period end: 30 March 2019 00:00
Orbit: 379 x 390 km, 42.8° (Epoch: 19 March)

Date Brightness Start Highest point End Pass type
(mag) Time Alt. Az. Time Alt. Az. Time Alt. Az.
20 Mar 3.0 05:40:31 27° ESE 05:40:31 27° ESE 05:42:08 10° ESE visible
20 Mar 2.4 07:12:44 10° W 07:15:29 27° SSW 07:18:13 10° SE visible
21 Mar 1.7 06:16:08 39° SSW 06:16:08 39° SSW 06:19:07 10° SE visible
22 Mar 4.2 05:19:39 11° ESE 05:19:39 11° ESE 05:19:48 10° ESE visible
22 Mar 2.9 06:51:53 15° WSW 06:53:04 18° SSW 06:55:16 10° SSE visible
23 Mar 3.3 05:55:31 16° SSE 05:55:31 16° SSE 05:56:29 10° SE visible
29 Mar 3.4 21:19:45 10° S 21:20:19 11° SSE 21:20:19 11° SSE visible
